Wind_Speed
8 8 8 7 8 8 7 6 4 4 4 5 5 6 7 7 7 8 8 9 10 11 12 12 11 9 7 6 6 7 7 7 6 6 6 7 7 6 6 6 6 6 6
9 10 10 10 10 9 9 8 6 5 3 3 3 3 4 5 5 5 6 7 8 9 10 11 11 10 9 6 5 5 5 5 6 5 5 5 5 4 4 4 4 5 6
10 11 11 11 11 10 10 9 8 6 5 4 3 2 2 3 3 4 5 5 6 7 8 9 10 10 9 7 5 3 3 3 4 4 4 3 3 3 3 3 3 3 4
10 11 12 12 12 11 10 10 9 8 6 5 4 3 3 4 4 5 6 6 6 6 7 7 8 9 8 7 5 4 2 1 1 2 2 3 2 2 3 3 3 3 3
12 13 14 13 13 12 11 10 10 9 8 7 7 6 6 7 7 7 8 8 8 8 8 7 7 7 7 6 5 5 4 2 1 1 1 1 2 2 3 4 4 3 3
12 13 14 14 13 12 11 10 10 10 10 10 10 10 11 11 11 11 11 12 12 11 11 10 9 8 8 7 6 5 5 4 3 2 3 3 2 2 3 3 4 4 4
12 13 13 12 11 11 11 11 12 12 13 13 13 14 15 15 15 15 15 15 15 15 15 14 13 12 11 10 9 8 7 7 5 4 4 4 4 4 4 4 4 4 5
11 12 12 12 12 12 13 13 14 14 15 16 16 17 17 18 18 19 19 19 19 19 18 18 18 17 16 15 13 12 11 11 10 8 7 6 6 6 6 6 6 5 5
12 13 14 14 15 15 16 16 16 17 17 17 18 18 19 20 21 21 21 21 21 22 22 22 22 21 21 19 18 17 16 15 14 13 12 10 9 8 8 8 9 8 7
14 15 16 17 18 19 20 20 20 20 20 20 20 20 20 21 22 23 23 23 24 24 24 25 25 25 25 24 23 22 20 19 18 17 16 15 13 13 12 11 11 11 10
17 18 19 20 21 23 23 24 24 24 24 24 23 22 22 22 22 23 24 24 25 25 25 26 26 27 27 26 25 25 24 23 22 21 20 19 18 17 16 15 14 14 13
20 22 23 24 25 26 28 28 29 29 29 28 27 25 24 24 23 23 24 24 25 25 25 25 26 27 27 27 26 26 25 25 24 23 22 22 21 20 19 19 19 18 16
23 25 27 28 29 30 32 32 33 34 33 32 30 29 27 25 24 24 25 25 25 25 25 25 26 26 26 27 26 25 25 24 24 24 24 23 23 23 22 21 21 22 21
26 28 29 31 32 33 35 36 37 35 35 35 35 32 30 28 26 26 26 26 26 26 26 26 26 26 25 25 24 23 23 23 22 22 22 22 22 22 22 23 23 24 24
29 30 31 33 34 34 36 36 37 37 37 38 38 36 33 30 28 28 27 27 27 26 26 27 27 26 25 25 24 23 22 21 21 20 21 21 21 20 21 22 23 24 26
30 32 33 35 37 37 37 38 37 37 40 42 40 38 35 33 31 29 28 27 27 27 27 27 27 27 26 25 25 23 22 21 21 21 20 19 19 19 20 20 21 23 25
32 33 36 38 37 38 39 39 38 39 38 40 42 42 39 37 33 31 29 28 27 27 27 27 27 27 27 25 25 24 22 21 20 21 19 18 18 18 19 21 21 22 23
35 36 39 40 38 38 39 38 39 39 39 39 41 42 39 37 34 31 29 28 27 26 26 27 27 27 26 25 24 23 21 20 19 18 17 16 17 17 18 19 20 22 23
38 39 40 40 38 38 39 39 39 40 37 37 37 38 38 36 32 30 30 29 26 25 25 26 26 26 25 25 24 23 22 20 19 17 16 15 15 16 16 17 19 20 21
39 40 40 40 38 38 39 40 39 38 34 31 31 34 33 34 31 30 29 28 27 25 25 25 25 24 24 24 24 23 22 21 19 17 16 15 14 14 15 16 17 19 20
40 40 39 39 38 38 39 39 38 36 33 26 25 29 30 31 31 30 30 29 28 26 25 25 24 24 24 24 24 23 22 21 19 18 16 14 14 14 14 15 16 17 19
41 40 40 39 40 40 40 39 38 36 33 26 23 24 25 29 30 30 29 29 28 27 27 26 25 25 24 24 24 23 22 22 20 19 17 16 14 14 14 14 15 17 18
40 41 41 41 42 42 41 40 38 35 32 28 26 25 24 25 26 28 29 29 28 28 28 28 27 26 26 25 25 24 23 23 22 21 19 17 16 15 15 15 16 17 18
40 41 43 43 44 43 42 41 39 37 34 31 29 28 27 27 28 28 29 29 29 29 29 29 29 28 28 27 26 26 25 25 23 22 21 19 18 17 16 16 16 17 18
39 41 43 44 45 45 45 44 42 39 37 35 33 32 30 30 30 32 32 31 31 31 31 31 31 31 31 30 29 28 27 26 26 25 23 22 20 19 18 18 18 18 18
40 42 44 45 46 46 46 46 45 43 41 40 39 38 37 36 35 35 36 35 34 33 33 33 33 34 33 33 32 31 30 28 28 27 26 24 23 21 20 20 19 19 19
Wind_Direction
279 281 286 288 287 289 296 309 329 356 28 44 48 46 45 44 43 40 35 31 29 28 27 30 36 39 42 50 56 59 60 59 59 61 66 70 75 80 85 97 111 123 128
281 284 287 287 287 287 290 297 308 320 339 7 26 34 35 33 30 25 22 19 18 17 18 21 26 30 31 33 40 52 62 65 65 63 64 69 77 89 98 107 118 131 135
289 293 293 290 289 289 292 295 300 305 312 322 336 349 352 353 352 350 351 352 355 0 6 10 15 20 23 23 24 30 50 68 71 70 71 77 92 106 121 130 137 147 150
302 302 298 295 293 293 296 298 299 301 303 305 307 307 304 303 304 309 313 316 321 329 340 351 0 6 12 15 13 8 3 18 61 74 87 95 118 149 155 152 154 165 176
309 305 299 296 296 297 298 299 300 300 300 299 298 295 291 288 287 286 289 292 296 301 309 318 331 341 349 357 360 357 347 337 316 284 228 170 153 160 181 182 176 176 185
313 309 303 301 301 302 303 303 302 301 300 297 296 293 289 286 284 282 281 281 281 284 289 294 299 307 315 324 329 330 329 325 318 291 268 249 227 206 197 194 195 197 203
313 310 307 307 306 306 304 303 302 300 298 296 294 292 289 286 284 282 281 279 278 278 280 282 285 287 291 296 300 302 304 302 300 292 279 268 254 240 232 223 208 204 213
308 308 308 307 307 305 303 301 300 298 296 294 292 291 289 287 284 282 280 278 278 277 277 278 280 281 282 284 286 287 288 289 288 286 280 274 266 256 246 239 229 219 221
299 302 305 304 303 302 300 298 296 294 292 290 289 287 285 283 282 280 279 277 276 275 275 277 277 278 279 279 280 280 281 279 278 279 277 272 268 263 255 247 239 232 229
292 296 301 302 300 298 297 295 292 290 288 286 284 283 282 281 279 278 277 275 274 273 273 274 275 276 276 276 277 276 276 274 271 271 271 269 267 264 258 252 244 237 232
287 291 294 296 295 294 293 291 289 287 285 283 281 279 279 278 277 276 275 275 274 273 273 273 273 273 273 274 275 274 274 272 268 267 266 265 265 264 261 255 249 242 235
286 288 290 291 290 290 290 289 287 284 282 279 278 276 275 274 274 274 274 273 274 274 273 273 273 272 272 273 275 275 276 274 268 265 264 262 263 263 261 257 252 247 240
287 289 290 291 290 290 290 288 286 282 279 275 272 270 270 269 270 272 272 272 272 273 273 272 272 272 271 272 273 275 277 279 271 266 265 261 259 258 257 256 253 250 245
289 288 287 288 288 288 289 287 284 282 279 275 270 267 266 266 267 268 269 270 271 271 271 271 270 269 271 272 275 277 279 279 272 268 265 262 261 258 255 255 254 251 247
289 290 290 292 292 291 290 288 285 282 279 272 266 263 261 261 264 266 266 267 269 269 269 269 269 268 269 270 273 276 278 276 272 268 263 261 259 255 254 253 255 253 249
290 290 290 294 295 297 300 297 290 288 282 270 260 255 254 256 259 262 263 264 265 265 265 266 267 267 266 266 269 271 270 272 270 267 262 260 258 254 251 251 253 256 252
290 292 294 295 296 299 300 300 297 291 286 273 258 251 251 253 254 255 258 261 262 262 263 263 264 264 264 264 266 265 265 267 268 264 260 258 256 252 251 251 252 254 253
292 294 296 296 301 304 305 303 303 303 293 278 263 251 249 251 250 252 256 257 258 259 261 261 260 260 261 261 260 259 260 261 261 259 259 259 258 257 256 255 254 254 254
294 293 294 298 303 308 312 314 313 311 300 282 266 252 249 249 249 252 256 257 256 256 258 259 258 257 256 257 256 255 254 255 256 255 257 260 261 262 263 262 260 259 258
294 295 297 302 307 310 313 315 317 316 306 289 266 255 250 246 247 252 254 255 255 255 254 254 253 253 252 251 251 250 249 249 249 250 251 255 260 263 265 266 265 264 262
295 297 299 302 306 309 311 314 317 318 315 299 270 261 253 248 248 249 252 253 253 254 253 250 249 249 247 246 245 244 244 244 244 245 247 250 255 260 264 268 268 268 266
292 295 296 299 301 304 307 310 314 315 316 307 284 275 260 252 252 249 251 251 252 254 252 248 246 244 243 241 239 240 241 241 242 242 244 246 250 257 263 267 269 268 267
292 293 294 296 298 300 302 305 308 310 311 304 291 284 273 265 257 252 250 251 253 253 250 247 245 242 239 237 237 238 240 241 241 242 242 244 249 256 262 266 268 269 268
290 291 292 294 296 297 299 300 301 302 301 297 291 284 276 268 263 259 255 253 253 252 249 247 244 241 238 235 235 237 240 241 243 244 242 245 250 256 263 267 270 271 271
293 293 294 295 296 296 296 296 296 294 292 288 284 279 274 268 264 260 258 255 252 251 250 247 244 241 238 235 235 236 239 242 243 244 243 243 248 256 263 269 273 275 276
296 296 296 296 296 295 295 293 291 288 285 281 278 274 269 265 263 259 257 256 252 251 250 247 244 241 239 237 236 236 238 241 243 245 245 245 248 253 260 268 273 277 279
Height
5908 5908 5908 5908 5908 5907 5906 5905 5904 5903 5903 5902 5902 5901 5901 5901 5900 5900 5900 5900 5899 5899 5898 5897 5896 5895 5894 5894 5893 5893 5893 5892 5892 5891 5891 5890 5890 5890 5890 5890 5890 5890 5891
5908 5908 5908 5908 5907 5906 5905 5904 5903 5903 5902 5902 5901 5901 5900 5900 5900 5900 5900 5900 5899 5899 5898 5897 5896 5895 5894 5894 5893 5893 5893 5893 5892 5892 5891 5891 5891 5891 5891 5891 5892 5892 5892
5908 5907 5907 5906 5906 5905 5904 5903 5902 5902 5901 5901 5900 5900 5900 5900 5900 5899 5899 5899 5899 5898 5898 5897 5896 5896 5895 5894 5893 5893 5893 5893 5892 5892 5892 5892 5892 5892 5892 5892 5892 5893 5893
5907 5906 5906 5905 5905 5904 5903 5902 5901 5901 5900 5900 5899 5899 5899 5899 5898 5898 5898 5898 5897 5897 5897 5896 5896 5896 5895 5894 5894 5893 5893 5892 5892 5892 5892 5892 5892 5892 5892 5892 5892 5892 5893
5906 5906 5905 5905 5904 5903 5902 5901 5901 5900 5899 5899 5898 5898 5898 5897 5897 5897 5896 5896 5896 5896 5895 5895 5895 5895 5895 5894 5893 5893 5892 5892 5892 5892 5892 5892 5892 5892 5892 5891 5892 5892 5893
5905 5905 5904 5903 5903 5902 5901 5900 5899 5899 5898 5897 5897 5897 5896 5896 5895 5895 5894 5894 5894 5893 5893 5893 5893 5893 5893 5893 5893 5892 5892 5891 5891 5891 5891 5891 5891 5891 5891 5891 5891 5891 5892
5905 5904 5903 5902 5901 5900 5899 5899 5898 5897 5896 5896 5895 5895 5894 5894 5893 5893 5892 5891 5891 5891 5891 5891 5891 5891 5891 5892 5891 5891 5891 5890 5890 5890 5890 5889 5890 5890 5890 5890 5890 5890 5891
5904 5903 5902 5901 5899 5898 5897 5896 5895 5895 5894 5893 5893 5892 5891 5891 5890 5889 5889 5888 5888 5887 5887 5887 5887 5888 5888 5889 5889 5889 5889 5888 5888 5888 5888 5888 5888 5888 5888 5889 5889 5889 5889
5902 5901 5900 5899 5898 5896 5895 5894 5893 5892 5891 5890 5889 5889 5888 5887 5886 5885 5885 5884 5884 5883 5883 5883 5883 5883 5884 5884 5885 5885 5885 5885 5885 5885 5885 5886 5886 5886 5886 5887 5887 5887 5888
5900 5899 5898 5896 5895 5894 5893 5891 5890 5889 5888 5886 5886 5885 5884 5883 5882 5881 5881 5880 5879 5879 5879 5879 5878 5878 5878 5879 5879 5880 5881 5881 5881 5881 5881 5882 5883 5883 5883 5884 5884 5885 5886
5897 5896 5894 5893 5891 5890 5888 5887 5885 5884 5883 5882 5881 5880 5879 5878 5877 5877 5876 5875 5875 5874 5874 5874 5873 5873 5873 5873 5874 5874 5875 5876 5877 5877 5877 5878 5879 5879 5880 5881 5881 5882 5883
5893 5891 5890 5888 5886 5884 5883 5881 5880 5878 5877 5876 5875 5874 5873 5872 5872 5871 5870 5870 5869 5869 5869 5868 5868 5867 5867 5867 5868 5868 5868 5869 5870 5871 5872 5873 5874 5875 5875 5876 5877 5878 5879
5888 5887 5885 5882 5880 5879 5877 5875 5873 5871 5870 5868 5867 5866 5866 5865 5865 5865 5864 5864 5864 5863 5863 5863 5862 5862 5861 5861 5862 5862 5862 5863 5863 5865 5866 5867 5867 5869 5870 5871 5873 5874 5875
5883 5881 5879 5876 5874 5872 5870 5868 5866 5864 5862 5860 5859 5858 5858 5858 5858 5857 5857 5858 5858 5857 5857 5857 5857 5856 5856 5855 5856 5856 5856 5856 5857 5858 5859 5860 5861 5862 5864 5865 5867 5868 5870
5877 5875 5872 5869 5866 5864 5862 5859 5857 5855 5853 5851 5850 5849 5848 5849 5850 5850 5850 5851 5851 5851 5851 5851 5851 5851 5851 5851 5850 5851 5851 5851 5852 5852 5853 5854 5855 5856 5858 5859 5861 5862 5864
5871 5868 5865 5862 5859 5855 5853 5850 5847 5845 5842 5840 5839 5839 5839 5840 5841 5841 5842 5843 5844 5844 5844 5844 5844 5845 5845 5845 5845 5846 5846 5846 5847 5847 5848 5848 5849 5850 5852 5853 5855 5857 5858
5864 5860 5857 5854 5851 5848 5844 5840 5837 5833 5829 5828 5827 5828 5829 5830 5831 5832 5833 5835 5836 5836 5837 5837 5838 5838 5839 5839 5840 5840 5841 5842 5842 5842 5843 5843 5845 5846 5847 5848 5850 5851 5853
5857 5854 5850 5846 5842 5839 5835 5830 5826 5822 5817 5815 5816 5817 5818 5819 5821 5823 5825 5826 5828 5829 5830 5830 5830 5831 5832 5833 5834 5835 5836 5837 5837 5838 5839 5839 5840 5842 5843 5844 5845 5846 5847
5849 5846 5843 5838 5835 5832 5827 5822 5818 5812 5806 5804 5804 5806 5808 5810 5812 5815 5816 5818 5820 5821 5822 5823 5824 5825 5826 5827 5829 5830 5831 5832 5833 5834 5835 5836 5836 5837 5838 5839 5840 5841 5842
5841 5838 5835 5831 5828 5825 5821 5817 5811 5805 5798 5795 5795 5798 5800 5802 5804 5806 5808 5810 5812 5814 5815 5816 5817 5818 5819 5821 5823 5824 5825 5827 5828 5830 5831 5831 5832 5833 5834 5835 5835 5836 5837
5834 5831 5827 5824 5821 5818 5815 5811 5806 5800 5794 5790 5790 5792 5792 5793 5795 5798 5801 5803 5805 5806 5808 5809 5810 5812 5813 5815 5817 5818 5820 5822 5824 5825 5827 5827 5829 5830 5830 5830 5830 5831 5831
5826 5823 5820 5817 5814 5811 5808 5804 5800 5796 5791 5787 5788 5787 5787 5789 5790 5792 5794 5796 5797 5799 5801 5802 5804 5805 5807 5808 5810 5812 5814 5817 5819 5821 5822 5824 5824 5826 5826 5826 5826 5825 5825
5818 5815 5812 5809 5806 5803 5800 5797 5794 5791 5788 5786 5785 5784 5784 5784 5785 5785 5787 5788 5790 5792 5793 5795 5797 5798 5800 5802 5804 5806 5808 5811 5813 5816 5817 5819 5820 5821 5821 5821 5821 5820 5820
5810 5807 5804 5801 5798 5795 5792 5789 5787 5784 5783 5781 5780 5779 5779 5779 5778 5779 5779 5781 5783 5784 5785 5787 5789 5791 5793 5795 5798 5800 5802 5805 5807 5810 5812 5814 5815 5816 5817 5817 5816 5815 5815
5802 5798 5795 5791 5788 5785 5782 5779 5777 5775 5774 5773 5772 5771 5771 5771 5770 5771 5772 5773 5774 5775 5776 5778 5780 5783 5785 5788 5790 5793 5795 5798 5800 5803 5806 5808 5810 5811 5811 5812 5811 5810 5809
5793 5789 5785 5781 5777 5773 5770 5767 5765 5763 5762 5762 5761 5761 5761 5761 5761 5761 5762 5763 5765 5766 5767 5769 5771 5774 5777 5779 5782 5785 5788 5791 5793 5795 5798 5801 5803 5805 5806 5806 5806 5805 5804